Regional Weather Roundup
Issued by NWS

Current Version | Previous Version | Graphics & Text | Print | Product List | Glossary On
Versions: 1 2 3 4 5 6 7 8 9 10 11 12 13 14 15 16 17 18 19 20 21 22 23 24 25 26 27 28 29 30 31 32 33 34 35 36 37 38 39 40 41 42 43 44 45 46 47 48 49 50
047
ASHW40 PHFO 221543
RWRHI

WEATHER ROUNDUP FOR HAWAII
NATIONAL WEATHER SERVICE HONOLULU HI
500 AM HST FRI MAY 22 2015

THIS IS AN AUTOMATED REPORT THAT HAS NOT BEEN QUALITY CONTROLLED.

NOTE..."FAIR" INDICATES FEW OR NO CLOUDS BELOW 12,000 FEET WITH NO
SIGNIFICANT WEATHER AND/OR OBSTRUCTIONS TO VISIBILITY.

* - THESE SITES REPORT LIMITED FIELDS

HIZ001>004-221600-
KAUAI-NIIHAU-

CITY           SKY/WX    TMP DP  RH WIND       PRES   REMARKS
LIHUE APT      PTCLDY    67  62  84 W7        29.95R
PORT ALLEN*    NOT AVBL
POIPU*           N/A     64 N/A N/A VRB3        N/A
PRINCEVILLE*     N/A     66 N/A N/A MISG        N/A
KOKOLE POINT*  NOT AVBL
MOLOAA DAIRY*  NOT AVBL
WAIMEA HTS*      N/A     70  59  68 N5          N/A
PUU OPAE*        N/A     63  57  82 N2          N/A
PUU LUA*       NOT AVBL
MAKAHA RIDGE*    N/A     64  63  94 CALM        N/A
$$

HIZ005>011-221600-
OAHU-

CITY           SKY/WX    TMP DP  RH WIND       PRES   REMARKS
HONOLULU       PTCLDY    71  66  84 N5        29.94R
KALAELOA       PTCLDY    66  62  87 CALM      29.95S
KANEOHE MCB    PTCLDY    69  65  86 CALM      29.91S
WHEELER FIELD  MOCLDY    67  62  84 VRB3      29.94S
BELLOWS*         N/A    N/A N/A N/A SW3         N/A
KAHUKU*          N/A    N/A N/A N/A E1          N/A
WHEELER*       NOT AVBL
WAIANAE HARBOR NOT AVBL
DILLINGHAM*      N/A     70  66  88 MISG        N/A
KAHUKU TRN*      N/A     66  61  82 S3          N/A
KAWAILOA*        N/A     66  63  88 E3          N/A
KII*             N/A     70  66  88 S3          N/A
MAKUA RANGE*     N/A     70  66  88 E5          N/A
OAHU FOREST NW   N/A    N/A N/A N/A CALM        N/A
SCHOFIELD BRK*   N/A     63  59  88 MISG        N/A
SCHOFIELD S*   NOT AVBL
WAIANAE VLY*     N/A     64  61  88 NE5         N/A
KUAOKALA*        N/A     70  64  83 S3          N/A
HONOULIUULI*   NOT AVBL
MOKUOLOE IS*     N/A    N/A N/A N/A MISG        N/A
PALEHUA*         N/A     64  63  94 NW5         N/A
WAIAWA PHB*    NOT AVBL
$$

HIZ012>013-221600-
MOLOKAI-

CITY           SKY/WX    TMP DP  RH WIND       PRES   REMARKS
MOLOKAI AIRPT  PTCLDY    64  63  96 CALM      29.96R
KALAUPAPA      NOT AVBL
MAKAPULAPAI*     N/A     66  63  88 S5          N/A
MOLOKAI 1*       N/A     61  57  88 N2          N/A
PUU ALII*        N/A     54  54 100 CALM        N/A
$$

HIZ016-221600-
KAHOOLAWE-

CITY           SKY/WX    TMP DP  RH WIND       PRES   REMARKS
KAHOOLAWE*       N/A     66 N/A N/A N1          N/A
HAKIOAWA*        N/A     66  63  91 MISG      30.38R
HONOKANAIA*      N/A     71  62  74 N6        29.95S
KANELOA*         N/A     70  63  78 NW7         N/A
KEALIALALO*      N/A     70  63  78 NE3       29.96R
LUA MAKIKA*    NOT AVBL
$$

HIZ014>015-221600-
LANAI-

CITY           SKY/WX    TMP DP  RH WIND       PRES   REMARKS
LANAI CITY     FAIR      61  59  93 NE5       30.00R
LANAI 1*         N/A     66  64  94 NE8         N/A
$$

HIZ017>028-221600-
MAUI-

CITY           SKY/WX    TMP DP  RH WIND       PRES   REMARKS
KAHULUI        PTCLDY    65  62  90 SE7       29.95R
KAPALUA-W MAUI NOT AVBL
HANA AIRPORT   CLEAR     63  63 100 SW3       29.98R
HANA*            N/A     63 N/A N/A S3          N/A
HALEAKALA SUMM   N/A     39  25  56 W13         N/A
MAALAEA BAY*   NOT AVBL
HALEAKALA*     NOT AVBL
KAUPO GAP*       N/A     55  48  76 N8          N/A
KULA 1*          N/A     48  45  87 E3          N/A
$$

HIZ023>026-221600-
BIG ISLAND OF HAWAII COAST AND LOWER SLOPES-

CITY           SKY/WX    TMP DP  RH WIND       PRES   REMARKS
KAILUA KONA    MOCLDY    73  64  73 SE5       29.93R
HILO           PTCLDY    65  61  87 SW5       29.94R
HONOKAA*       NOT AVBL
KAWAIHAE MWT*    N/A     75 N/A N/A E6          N/A
KAWAIHAE*        N/A     75 N/A N/A N2          N/A
SOUTH POINT*     N/A     68 N/A N/A NW3         N/A
UPOLU AIRPORT*   N/A    N/A N/A N/A S1          N/A
KAMUELA*       CLOUDY    55  52  88 E7        30.04S
HAKALAU*         N/A     41  37  87 W3          N/A
KALOKO-HONOKO*   N/A     72  63  73 NE3       29.93R
PALI 2*          N/A     61  61 100 CALM        N/A
KEALAKOMO*       N/A     88  75  66 NW3         N/A  HX  97
KAUPULEHU*       N/A     64  59  82 S6          N/A
KAPAPALA*        N/A     64  64  98 N3          N/A
LOWER KAHUKU*    N/A     55  55 100 N2          N/A
PUHE CS*         N/A     73  54  49 E6G12       N/A
PUHO CS*         N/A     65  60  83 E3          N/A
PTA KEAMUKU*     N/A     55  52  88 CALM        N/A
WAIKOLOA*        N/A     64  57  77 E5G12       N/A
$$

HIZ027>028-221600-
BIG ISLAND OF HAWAII INTERIOR AND SUMMMITS-

CITY           SKY/WX    TMP DP  RH WIND       PRES   REMARKS
BRADSHAW FIELD MOCLDY    49  44  82 NW5       30.23S
MK VISITOR CEN NOT AVBL
MAUNA KEA*       N/A     34 -13  13 NW29        N/A  WCI  20
MAUNA LOA*       N/A     41 -15   9 MISG        N/A
MAUNA LOA 1*   NOT AVBL
PTA KIPUKA*      N/A     46  43  87 E3          N/A
PTA RANGE 17*    N/A     46  41  81 SE2         N/A
PTA WEST*        N/A     70  64  83 SE8         N/A
NENE CABIN*      N/A     46 N/A N/A N3          N/A
AHUMOA*          N/A     46  45  93 E3          N/A
PTA PORTABLE*  NOT AVBL
PUU MALI*        N/A     48  43  81 W8G14       N/A
$$

HIC003-221600-
NORTHWEST ISLANDS-

CITY           SKY/WX    TMP DP  RH WIND       PRES   REMARKS
MIDWAY ISLAND  CLOUDY   N/A N/A N/A NE9       30.21R
MIDWAY NOS*    NOT AVBL
FRENCH FRIGATE NOT AVBL
$$

PHZ110>124-180-221600-
BUOY REPORTS

STATION/POSITION TIME  TEMP    WIND        PRES    WAVE   SWELL
                       AIR SEA DIR/SP/G            HT/PER HT/DIR
                 (UTC) (F)     (DEG/KT/KT) (MB)    (FT/S) (FT/D)
BUOY 51001       NOT AVBL
BUOY 51101       1500   73 76   30/ 17/ 21 1014.6R   8/ 8   7/340
BUOY 51100       NOT AVBL
BUOY 51002       1500   76 78  130/  6/  8 1013.3R   5/ 9   5/100
BUOY 51003       1500   77 79   10/  6/  8 1013.6R   4/12   5
BUOY 51004       1416   76 78  110/  4/  4 1013.4R   4/15   5/190
BARBERS PT BUOY  NOT AVBL
WAIMEA BAY BUOY  1500      77                N/A     2/14   2/270
KAILUA BAY BUOY  1500      78                N/A     3/ 7   2/140
LANAI BUOY       NOT AVBL
BARBERS PT 2     1500      78                N/A     4/14   3/200
PAUWELA MAUI     1500      77                N/A     3/ 9
HILO             1500      77                N/A     4/ 9
KANEOHE BAY BUOY 1500      77                N/A     2/ 9
HANALEI KAUAI    1500      78                N/A     3/ 9   2/310
KAHULUI HARBOR   1500   68 77  160/  2/  3 1013.9R
HONOLULU HARBOR  1500   72 78  330/  1/  3 1013.9R
KILO NALU        NOT AVBL
HILO HARBOR      1500   66 76  190/  2/  4 1013.6R
MOKUOLOE         1500      78              1013.9R
NAWILIWILI       1500   66 80  250/  6/  7 1013.8R
WHOTS BUOY       NOT AVBL
BUOY 51028       NOT AVBL
$$

......................KEY........................................
  SKY/WX - SKY CONDITIONS/PRESENT WEATHER
  TMP    - TEMPERATURE IN FAHRENHEIT
  DWPT   - DEWPOINT IN FAHRENHEIT
  RH     - RELATIVE HUMIDITY IN PERCENT
  WIND   - DIRECTION AND SPEED /MPH FOR ISLANDS...KTS FOR BUOYS/
  PRES   - MEAN SEA LEVEL PRESSURE IN INCHES OF HG
  VSB    - VISIBILITY IN MILES
  HX     - HEAT INDEX
  WCI    - WIND CHILL INDEX
  VRB    - VARIABLE WIND DIRECTION
  N/A    - NOT AVAILABLE



USA.gov is the U.S. government's official web portal to all federal, state and local government web resources and services.